| time (UTC) | temp C | wind direction | speed KPH | gust KPH | rain 1hr cm | rain 24hr cm | rain mn cm | humidity % | barometer mb |
| 20260901224516 | 25 | 335 | 0.0 | 0.0 | 0.00 | 2.41 | 2.21 | 1 | 1010.0 |
| 20260901223017 | 25 | 335 | 0.0 | 0.0 | 0.00 | 2.46 | 2.21 | 1 | 1009.6 |
| 20260901221508 | 26 | 335 | 0.0 | 0.0 | 0.00 | 2.46 | 2.21 | 1 | 1009.7 |
| 20260901220001 | 26 | 342 | 0.0 | 0.0 | 0.00 | 2.46 | 2.21 | 1 | 1009.7 |
| 20260901214557 | 26 | 342 | 0.0 | 0.0 | 0.00 | 2.46 | 2.21 | 1 | 1009.6 |
| 20260901213114 | 26 | 342 | 0.0 | 0.0 | 0.00 | 2.51 | 2.21 | 1 | 1009.5 |
| 20260901211553 | 25 | 87 | 0.0 | 0.0 | 0.00 | 2.51 | 2.21 | 1 | 1009.2 |
| 20260901210058 | 25 | 138 | 0.0 | 0.0 | 0.00 | 2.51 | 2.21 | 1 | 1009.1 |
| 20260901204542 | 25 | 141 | 0.0 | 0.0 | 0.00 | 2.51 | 2.21 | 1 | 1009.3 |
| 20260901203053 | 24 | 141 | 0.0 | 0.0 | 0.00 | 2.67 | 2.21 | 1 | 1009.3 |
| 20260901201534 | 25 | 141 | 0.0 | 0.0 | 0.00 | 2.67 | 2.21 | 1 | 1009.5 |
| 20260901200042 | 24 | 140 | 0.0 | 0.0 | 0.00 | 2.67 | 2.21 | 1 | 1009.5 |
| 20260901194540 | 24 | 140 | 0.0 | 0.0 | 0.00 | 2.67 | 2.21 | 1 | 1009.6 |
| 20260901193028 | 23 | 149 | 0.0 | 0.0 | 0.00 | 2.67 | 2.21 | 1 | 1009.5 |
| 20260901191524 | 23 | 150 | 0.0 | 0.0 | 0.00 | 2.67 | 2.21 | 1 | 1009.6 |
| 20260901190020 | 23 | 162 | 0.0 | 0.0 | 0.00 | 2.67 | 2.21 | 1 | 1009.5 |
| 20260901184525 | 23 | 163 | 0.0 | 0.0 | 0.00 | 2.67 | 2.21 | 1 | 1009.5 |
| 20260901183011 | 23 | 209 | 0.0 | 0.0 | 0.00 | 2.72 | 2.21 | 1 | 1009.5 |
| 20260901181508 | 23 | 209 | 0.0 | 0.0 | 0.00 | 2.72 | 2.21 | 1 | 1009.3 |
| 20260901180002 | 22 | 210 | 0.0 | 0.0 | 0.00 | 2.72 | 2.21 | 1 | 1009.3 |
| 20260901174558 | 22 | 213 | 0.0 | 0.0 | 0.00 | 2.72 | 2.21 | 1 | 1009.3 |
| 20260901173101 | 21 | 213 | 0.0 | 0.0 | 0.00 | 2.87 | 2.21 | 1 | 1009.4 |
| 20260901171552 | 21 | 213 | 0.0 | 0.0 | 0.00 | 2.87 | 2.21 | 1 | 1009.3 |
| 20260901170101 | 21 | 213 | 0.0 | 0.0 | 0.00 | 2.87 | 2.21 | 1 | 1009.4 |
| 20260901164546 | 21 | 213 | 0.0 | 0.0 | 0.00 | 2.87 | 2.21 | 1 | 1009.4 |
| 20260901163041 | 21 | 213 | 0.0 | 0.0 | 0.03 | 3.23 | 2.21 | 1 | 1009.6 |
| 20260901161538 | 21 | 213 | 0.0 | 0.0 | 0.03 | 3.23 | 2.21 | 1 | 1009.6 |
| 20260901160031 | 21 | 206 | 0.0 | 0.0 | 0.03 | 3.23 | 2.21 | 1 | 1009.7 |
| 20260901154525 | 20 | 206 | 0.0 | 0.0 | 0.03 | 3.23 | 2.21 | 1 | 1009.8 |
| 20260901153025 | 20 | 206 | 0.0 | 0.0 | 0.08 | 3.23 | 2.21 | 1 | 1009.9 |
| 20260901151516 | 20 | 206 | 0.0 | 0.0 | 0.05 | 3.20 | 2.18 | 1 | 1009.8 |
| 20260901150017 | 20 | 206 | 0.0 | 0.0 | 0.38 | 3.20 | 2.18 | 1 | 1009.8 |
| 20260901144514 | 21 | 206 | 0.0 | 0.0 | 0.46 | 3.20 | 2.18 | 1 | 1009.7 |
| 20260901143010 | 19 | 206 | 0.0 | 0.0 | 0.61 | 3.17 | 2.16 | 1 | 1009.7 |
| 20260901141506 | 19 | 206 | 0.0 | 0.0 | 0.69 | 3.15 | 2.13 | 1 | 1009.9 |
| 20260901140003 | 20 | 196 | 0.0 | 0.0 | 0.43 | 2.82 | 1.80 | 1 | 1009.9 |
| 20260901134613 | 19 | 196 | 0.0 | 0.0 | 0.46 | 2.74 | 1.73 | 1 | 1009.6 |
| 20260901133058 | 19 | 196 | 0.0 | 0.0 | 0.58 | 2.62 | 1.60 | 1 | 1010.3 |
| 20260901131553 | 19 | 202 | 0.0 | 0.0 | 0.86 | 2.51 | 1.50 | 1 | 1010.3 |
| 20260901130046 | 18 | 97 | 0.0 | 0.0 | 1.12 | 2.39 | 1.37 | 1 | 1010.2 |
| 20260901124543 | 18 | 98 | 0.0 | 0.0 | 1.12 | 2.31 | 1.30 | 1 | 1010.3 |
| 20260901123036 | 18 | 152 | 0.0 | 0.0 | 0.97 | 2.11 | 1.09 | 1 | 1010.9 |
| 20260901121530 | 18 | 150 | 0.0 | 0.0 | 0.61 | 1.73 | 0.71 | 1 | 1010.9 |
| 20260901120052 | 18 | 151 | 0.0 | 0.0 | 0.18 | 1.30 | 0.28 | 1 | 1010.5 |
| 20260901114534 | 70 | 151 | 0.0 | 0.0 | 0.13 | 1.24 | 0.23 | 1 | 1010.7 |
| 20260901113033 | 19 | 152 | 0.0 | 0.0 | 0.08 | 1.17 | 0.15 | 1 | 1010.4 |
| 20260901111526 | 20 | 220 | 0.0 | 0.0 | 0.03 | 1.12 | 0.10 | 1 | 1010.0 |
| 20260901110029 | 70 | 220 | 0.0 | 0.0 | 0.03 | 1.12 | 0.10 | 1 | 1009.9 |
| 20260901104526 | 70 | 220 | 0.0 | 0.0 | 0.03 | 1.12 | 0.10 | 1 | 1010.1 |
| 20260901103028 | 70 | 220 | 0.0 | 0.0 | 0.00 | 1.09 | 0.08 | 1 | 1010.0 |
| 20260901101522 | 70 | 220 | 0.0 | 0.0 | 0.00 | 1.09 | 0.08 | 1 | 1009.9 |
| 20260901100008 | 70 | 220 | 0.0 | 0.0 | 0.00 | 1.09 | 0.08 | 1 | 1010.0 |
| 20260901094506 | 70 | 220 | 0.0 | 0.0 | 0.03 | 1.09 | 0.08 | 1 | 1010.3 |
| 20260901093006 | 70 | 220 | 0.0 | 0.0 | 0.03 | 1.09 | 0.08 | 1 | 1010.5 |
| 20260901091505 | 70 | 220 | 0.0 | 0.0 | 0.05 | 1.09 | 0.08 | 1 | 1010.5 |
| 20260901090008 | 70 | 220 | 0.0 | 0.0 | 0.05 | 1.09 | 0.08 | 1 | 1010.8 |
| 20260901084503 | 70 | 220 | 0.0 | 0.0 | 0.05 | 1.07 | 0.05 | 1 | 1011.0 |
| 20260901083002 | 70 | 220 | 0.0 | 0.0 | 0.05 | 1.07 | 0.05 | 1 | 1011.3 |
| 20260901081601 | 70 | 220 | 0.0 | 0.0 | 0.05 | 1.07 | 0.05 | 1 | 1011.5 |
| 20260901074600 | 70 | 220 | 0.0 | 0.0 | 0.00 | 1.02 | 0.00 | 1 | 1011.5 |
| 20260901073057 | 70 | 220 | 0.0 | 0.0 | 0.00 | 1.02 | 0.00 | 1 | 1011.7 |
| 20260901071556 | 70 | 220 | 0.0 | 0.0 | 0.00 | 1.02 | 0.00 | 1 | 1011.9 |
| 20260901064556 | 70 | 220 | 0.0 | 0.0 | 0.00 | 1.02 | 0.00 | 1 | 1011.9 |
| 20260901063054 | 70 | 220 | 0.0 | 0.0 | 0.00 | 1.02 | 0.00 | 1 | 1012.0 |
| 20260901061553 | 70 | 220 | 0.0 | 0.0 | 0.00 | 1.02 | 0.00 | 1 | 1012.2 |
| 20260901054550 | 70 | 220 | 0.0 | 0.0 | 0.00 | 1.02 | 0.00 | 1 | 1012.7 |
| 20260901053116 | 70 | 220 | 0.0 | 0.0 | 0.00 | 1.02 | 0.00 | 1 | 1012.9 |
| 20260901051603 | 70 | 220 | 0.0 | 0.0 | 0.00 | 1.02 | 0.00 | 1 | 1012.9 |
| 20260901044555 | 70 | 220 | 0.0 | 0.0 | 0.00 | 1.02 | 0.00 | 1 | 1013.1 |
| 20260901043040 | 70 | 220 | 0.0 | 0.0 | 0.00 | 1.02 | 1.02 | 1 | 1013.3 |
| 20260901041535 | 70 | 220 | 0.0 | 0.0 | 0.00 | 1.02 | 1.02 | 1 | 1013.2 |
| 20260901034532 | 70 | 220 | 0.0 | 0.0 | 0.00 | 1.02 | 1.02 | 1 | 1013.4 |
| 20260901033029 | 70 | 220 | 0.0 | 0.0 | 0.00 | 1.02 | 1.02 | 1 | 1013.5 |
| 20260901031524 | 70 | 220 | 0.0 | 0.0 | 0.00 | 1.02 | 1.02 | 1 | 1013.5 |
| 20260901024513 | 70 | 220 | 0.0 | 0.0 | 0.00 | 1.02 | 1.02 | 1 | 1013.7 |
| 20260901023011 | 70 | 220 | 0.0 | 0.0 | 0.00 | 1.02 | 1.02 | 1 | 1014.0 |
| 20260901021510 | 70 | 220 | 0.0 | 0.0 | 0.10 | 1.02 | 1.02 | 1 | 1014.0 |
| 20260901014501 | 70 | 220 | 0.0 | 0.0 | 0.18 | 1.02 | 1.02 | 1 | 1014.3 |
| 20260901013058 | 70 | 220 | 0.0 | 0.0 | 0.18 | 1.02 | 1.02 | 1 | 1014.4 |
| 20260901011553 | 70 | 220 | 0.0 | 0.0 | 0.20 | 1.02 | 1.02 | 1 | 1014.5 |
| 20260901004543 | 70 | 220 | 0.0 | 0.0 | 0.03 | 0.84 | 0.84 | 1 | 1014.4 |
| 20260901003041 | 70 | 220 | 0.0 | 0.0 | 0.03 | 0.84 | 0.84 | 1 | 1014.3 |
| 20260901001535 | 70 | 220 | 0.0 | 0.0 | 0.00 | 0.81 | 0.81 | 1 | 1014.2 |
| 20260831234530 | 70 | 220 | 0.0 | 0.0 | 0.00 | 0.81 | 0.81 | 1 | 1014.5 |
| 20260831233026 | 70 | 220 | 0.0 | 0.0 | 0.03 | 0.81 | 0.81 | 1 | 1014.5 |
| 20260831231522 | 70 | 220 | 0.0 | 0.0 | 0.03 | 0.81 | 0.81 | 1 | 1014.7 |